Content
SEND FEEDBACK

Daily
Averages
Monthly
Summary
United States of America

HILLSIDE, NEW JERSEY


Home > North America > United States > New Jersey
Elevation: 40 feet     Latitude: 40 40N     Longitude: 074 14W

WEATHER
 
SELECT A DAY
Number of Records: 189,442;   Date Range: 1/1/95 - 7/7/14
 
SHARE

PRINT THIS DATA

[ ← Previous Day ]
WEATHER ALMANAC - AUGUST 25, 2013
[ Next Day → ]
[ °C ]   °F
Weather ElementAverageHighLow
Temperature73.1 °F82.9 °F (2:51 pm)61 °F (6:51 am)
Dewpoint54.1 °F57.9 °F (1:51 am)51.1 °F (11:51 am)
Humidity54.7 %87 % (6:51 am)33 % (2:51 pm)
Barometer30.32 in30.40 in (7:51 am)30.25 in (6:51 pm)
Wind Speed7.1 mph13.8 mph (6:51 pm)
Wind Gust19.6 mph (2:51 pm)
Weather ElementAverage
Visibility10 mi
Wind DirectionSSW (203.9 °)

Weather ElementTotal
Precipitation---
Cooling Degree Days7 (Base 65)
Growing Degree Days22 (Base 50)
Averaged from 23 records on August 25, 2013
WEATHER CONDITIONS BREAKOUT
WIND DIRECTION BREAKOUT
WEATHER BY HOUR - AUGUST 25, 2013
[ °C ]   °F
Local TimeTemperatureDewpointHumidityBarometerVisibilityWind DirectionWind SpeedGust SpeedPrecipitationEventsConditions
1:51 AM66.0 °F57.9 °F75 %30.33 in10.0 miSSW (200°)3.5 mphClear
2:51 AM63.0 °F57.0 °F81 %30.33 in10.0 miWest (270°)3.5 mphClear
3:51 AM63.0 °F57.0 °F81 %30.34 in10.0 miCalmClear
4:51 AM63.0 °F57.0 °F81 %30.35 in10.0 miWest (270°)3.5 mphClear
5:51 AM62.1 °F57.0 °F84 %30.37 in10.0 miCalmClear
6:51 AM61.0 °F57.0 °F87 %30.38 in10.0 miCalmMostly Cloudy
7:51 AM66.9 °F57.9 °F73 %30.40 in10.0 miWSW (240°)3.5 mphMostly Cloudy
8:51 AM70.0 °F55.9 °F61 %30.40 in10.0 miWest (270°)6.9 mphMostly Cloudy
9:51 AM73.9 °F54.0 °F50 %30.40 in10.0 miWest (260°)12.7 mphMostly Cloudy
10:51 AM77.0 °F54.0 °F45 %30.38 in10.0 miWest (270°)8.1 mphScattered Clouds
11:51 AM81.0 °F51.1 °F35 %30.36 in10.0 miWNW (290°)8.1 mphMostly Cloudy
12:51 PM81.0 °F52.0 °F36 %30.35 in10.0 miSouth (190°)4.6 mphMostly Cloudy
1:51 PM82.0 °F53.1 °F37 %30.33 in10.0 miSW (220°)9.2 mph18.4 mphScattered Clouds
2:51 PM82.9 °F51.1 °F33 %30.32 in10.0 miWest (270°)11.5 mph19.6 mphScattered Clouds
3:51 PM82.9 °F52.0 °F34 %30.31 in10.0 miWSW (250°)5.8 mphScattered Clouds
4:51 PM82.0 °F52.0 °F35 %30.29 in10.0 miSSW (210°)12.7 mph18.4 mphMostly Cloudy
5:51 PM80.1 °F51.1 °F36 %30.27 in10.0 miSW (230°)12.7 mphMostly Cloudy
6:51 PM79.0 °F51.1 °F38 %30.25 in10.0 miSW (220°)13.8 mphMostly Cloudy
7:51 PM78.1 °F51.1 °F39 %30.25 in10.0 miSW (230°)8.1 mphMostly Cloudy
8:51 PM75.0 °F51.1 °F43 %30.25 in10.0 miSSW (210°)6.9 mphMostly Cloudy
9:51 PM72.0 °F55.0 °F55 %30.25 in10.0 miSouth (180°)9.2 mphMostly Cloudy
10:51 PM70.0 °F55.0 °F59 %30.25 in10.0 miSouth (190°)8.1 mphMostly Cloudy
11:51 PM69.1 °F55.0 °F61 %30.25 in10.0 miSW (220°)11.5 mphMostly Cloudy
Hourly data recorded from KEWR, located miles away from Hillside, New Jersey







STORIES FROM OUR PARTNERS